Location: Alexander
(41.3564°N, 81.5960°W)
Time: 13:56:31
(UTC+00:00)

CZ-4B DEB - Pass Details

Date: 24 January 2021
Orbit: 840 x 861 km, 99.1° (Epoch: 01 March)

Event Time Altitude Azimuth Distance (km) Brightness Sun altitude
Rises 12:04:08 0° 8° (N) 3,449 7.3 -7.9°
Reaches altitude 10° 12:06:35 10° 3° (N) 2,508 6.5 -7.4°
Maximum altitude 12:11:54 49° 290° (WNW) 1,102 4.4 -6.5°
Drops below altitude 10° 12:17:12 10° 217° (SW) 2,488 6.5 -5.6°
Sets 12:19:38 0° 212° (SSW) 3,418 7.2 -5.1°
